Find Local Weather

World > North America > United States > Michigan

Lowell, Michigan Regional Weather

Lat: 42.93N, Lon: 85.35W
Wx Zone: MIZ057
Warning FLW WEATHER ALERT - (More Info. Click Here) Warning
Feedback
Expires:201806210900;;869936
ASUS43 KDTX 210810
RWRMI 
MICHIGAN HOURLY REGIONAL WEATHER ROUNDUP
NATIONAL WEATHER SERVICE DETROIT/PONTIAC MI
ISSUED BY NATIONAL WEATHER SERVICE GRAND RAPIDS MI
400 AM EDT THU JUN 21 2018

NOTE: "FAIR" INDICATES FEW OR NO CLOUDS BELOW 12,000 FEET WITH NO
SIGNIFICANT WEATHER AND/OR OBSTRUCTION TO VISIBILITY.


MIZ043>046-050>051-056>058-064>065-071>073-077>080-210900-
SOUTHWEST LOWER MICHIGAN
  
CITY           SKY/WX    TMP DP  RH WIND       PRES   REMARKS
BATTLE CREEK   FAIR      62  60  93 E5        29.86F FOG              
BENTON HARBOR  FAIR      64  62  93 E3        29.82S FOG              
BIG RAPIDS     FAIR      56  54  95 CALM      29.87F                  
COLDWATER      FAIR      62  62  99 E5        29.84F FOG              
HOLLAND        FAIR      62  60  93 E5        29.84F                  
GRAND RAPIDS   FAIR      61  59  93 CALM      29.86F                  
KALAMAZOO      FAIR      63  61  93 E3        29.84F FOG              
MARSHALL       FOG       60  58  95 CALM      29.86F VSB 1/2          
MOUNT PLEASANT FAIR      56  56 100 CALM      29.87S                  
MUSKEGON       FAIR      60  57  89 SE5       29.85F                  
STURGIS        FAIR      63  62  96 E6        29.83S FOG              
$$

SKY/WX - Weather  TMP - Temperature  DP - Dewpoint  RH - Relative Humidity
WIND - Wind Direction/Speed PRES - Barometric Pressure